WC4PEM-14 Weather Reports


time (UTC)temp
C
wind
direction
speed
KPH
gust
KPH
rain 1hr
cm
rain 24hr
cm
rain mn
cm
humidity
%
barometer
mb
20260504150309 26 63 11.3 27.4 0.00 0.00 0.00 52 1016.9
20260504141309 25 93 11.3 25.7 0.00 0.00 0.00 55 1016.8
20260504140809 25 93 11.3 27.4 0.00 0.00 0.00 57 1016.7
20260504140501 24 80 9.7 20.9 0.00 0.00 0.00 58 1016.7
20260504140309 25 92 9.7 22.5 0.00 0.00 0.00 58 1016.7
20260504130809 22 93 3.2 14.5 0.00 0.00 0.00 68 1016.4
20260504130309 22 9 3.2 9.7 0.00 0.00 0.00 70 1016.5
20260504120309 19 15 4.8 8.0 0.00 0.00 0.00 79 1016.1
20260504110309 17 9 3.2 8.0 0.00 0.00 0.00 83 1015.6
20260504100309 18 9 4.8 11.3 0.00 0.00 0.00 82 1015.2
20260504081816 19 342 3.2 6.4 0.00 0.03 0.00 80 1015.1
20260504081810 19 342 3.2 6.4 0.00 0.00 0.00 80 1015.2
20260504081310 19 342 3.2 6.4 0.00 0.03 0.00 80 1015.1
20260504080810 19 9 3.2 8.0 0.00 0.03 0.00 80 1015.2
20260504080637 19 344 3.2 8.0 0.00 0.03 0.00 80 1015.3
20260504080323 19 338 3.2 6.4 0.00 0.03 0.00 80 1015.3
20260504080310 19 344 3.2 8.0 0.00 0.03 0.00 80 1015.3
20260504070310 19 9 1.6 4.8 0.00 0.08 0.00 80 1015.3
20260504050310 20 9 1.6 3.2 0.00 0.10 0.00 76 1016.6
20260504045811 20 9 1.6 3.2 0.00 0.10 0.00 76 1016.6
20260504045758 20 93 1.6 3.2 0.00 0.10 0.00 76 1016.7
20260504045310 20 93 1.6 3.2 0.00 0.10 0.00 76 1016.7
20260504044810 20 102 1.6 3.2 0.00 0.10 0.00 76 1016.6
20260504044720 20 9 1.6 3.2 0.00 0.10 0.00 76 1016.7
20260504044310 20 9 1.6 3.2 0.00 0.10 0.00 76 1016.7
20260504044100 20 51 1.6 3.2 0.00 0.10 0.00 76 1016.7
20260504043810 20 51 1.6 3.2 0.00 0.10 0.00 76 1016.7
20260504043310 20 9 1.6 6.4 0.00 0.10 0.00 75 1016.7
20260504043305 21 93 1.6 3.2 0.00 0.10 0.00 75 1016.8
20260504042810 21 93 1.6 3.2 0.00 0.10 0.00 75 1016.8
20260504042345 21 93 1.6 4.8 0.00 0.10 0.00 75 1016.7
20260504042310 21 9 1.6 4.8 0.00 0.10 0.00 75 1016.8
20260504041946 21 9 1.6 4.8 0.00 0.33 0.00 75 1016.8
20260504041810 21 93 1.6 4.8 0.00 0.10 0.00 75 1016.7
20260504041310 21 9 1.6 4.8 0.00 0.33 0.00 75 1016.8
20260504041236 21 17 1.6 4.8 0.00 0.33 0.00 74 1016.8
20260504040810 21 44 1.6 4.8 0.00 0.33 0.00 74 1016.7
20260504040310 21 17 1.6 4.8 0.00 0.33 0.00 74 1016.8
20260504040231 21 93 1.6 4.8 0.00 0.33 0.00 73 1017.0
20260504035810 21 93 1.6 4.8 0.00 0.33 0.00 73 1017.0
20260504035310 21 26 3.2 4.8 0.00 0.33 0.00 73 1016.9
20260504034810 21 93 3.2 4.8 0.00 0.33 0.00 73 1016.9
20260504034310 21 100 3.2 6.4 0.00 0.33 0.00 73 1016.8
20260504033810 21 107 3.2 6.4 0.00 0.33 0.00 72 1016.8
20260504033310 21 119 3.2 6.4 0.00 0.33 0.00 72 1016.9
20260504032810 21 9 3.2 9.7 0.00 0.33 0.00 72 1016.8
20260504032604 21 107 3.2 9.7 0.00 0.33 0.00 72 1016.9
20260504032310 21 41 3.2 9.7 0.00 0.33 0.00 72 1016.8
20260504031810 21 107 3.2 9.7 0.00 0.33 0.00 72 1016.9
20260504031651 21 93 3.2 6.4 0.00 0.33 0.00 72 1016.8
20260504031338 21 99 1.6 6.4 0.00 0.33 0.00 72 1016.8
20260504031310 21 93 3.2 6.4 0.00 0.33 0.00 72 1016.8
20260504031012 21 342 3.2 4.8 0.00 0.33 0.00 72 1017.0
20260504030810 21 99 1.6 6.4 0.00 0.33 0.00 72 1016.8
20260504030310 21 342 3.2 4.8 0.00 0.33 0.00 72 1017.0
20260504030141 21 61 3.2 4.8 0.00 0.33 0.00 72 1016.8
20260504025810 21 34 3.2 6.4 0.00 0.33 0.00 72 1016.8
20260504025511 21 93 3.2 6.4 0.00 0.33 0.00 71 1016.8
20260504025310 21 61 3.2 4.8 0.00 0.33 0.00 72 1016.8
20260504024810 21 93 3.2 6.4 0.00 0.33 0.00 71 1016.8
20260504024310 21 105 3.2 6.4 0.00 0.33 0.00 71 1016.7
20260504023816 21 19 3.2 6.4 0.00 0.33 0.00 72 1016.7
20260504023810 21 93 3.2 9.7 0.00 0.33 0.00 72 1016.8
20260504023310 21 19 3.2 6.4 0.00 0.33 0.00 72 1016.7
20260504023235 21 9 3.2 9.7 0.00 0.33 0.00 72 1016.6
20260504023039 21 86 3.2 6.4 0.00 0.33 0.00 72 1016.6
20260504022810 21 9 3.2 9.7 0.00 0.33 0.00 72 1016.6
20260504022310 21 86 3.2 6.4 0.00 0.33 0.00 72 1016.6
20260504022137 21 99 4.8 12.9 0.00 0.33 0.00 72 1016.5
20260504021818 21 98 3.2 9.7 0.00 0.33 0.00 72 1016.6
20260504021810 21 99 4.8 12.9 0.00 0.33 0.00 72 1016.5
20260504021310 21 98 3.2 9.7 0.00 0.33 0.00 72 1016.6
20260504020845 21 111 4.8 9.7 0.00 0.33 0.00 72 1016.5
20260504020810 21 93 4.8 9.7 0.00 0.33 0.00 72 1016.6
20260504020310 21 111 4.8 9.7 0.00 0.33 0.00 72 1016.5
20260504015937 21 93 4.8 11.3 0.00 0.33 0.00 72 1016.3
20260504015810 21 97 4.8 11.3 0.00 0.33 0.00 72 1016.4
20260504015310 21 86 4.8 9.7 0.00 0.33 0.00 72 1016.3
20260504015101 21 99 4.8 9.7 0.00 0.33 0.00 72 1016.2
20260504014810 21 93 4.8 11.3 0.00 0.33 0.00 72 1016.3
20260504014310 21 100 4.8 12.9 0.00 0.33 0.00 72 1016.3
20260504013815 21 86 4.8 9.7 0.00 0.33 0.00 72 1016.2
20260504013810 21 99 4.8 9.7 0.00 0.33 0.00 72 1016.2
20260504013310 21 86 4.8 9.7 0.00 0.33 0.00 72 1016.2
20260504013038 21 93 4.8 11.3 0.00 0.33 0.00 72 1016.2
20260504012810 21 86 4.8 11.3 0.00 0.33 0.00 72 1016.2
20260504012310 21 93 4.8 11.3 0.00 0.33 0.00 72 1016.2
20260504011810 21 97 6.4 9.7 0.00 0.33 0.00 71 1016.2
20260504011311 21 107 4.8 11.3 0.00 0.33 0.00 71 1016.2
20260504011056 21 104 4.8 12.9 0.00 0.33 0.00 71 1016.2
20260504010810 21 102 4.8 11.3 0.00 0.33 0.00 71 1016.1
20260504010310 21 104 4.8 12.9 0.00 0.33 0.00 71 1016.2
20260504005811 21 93 6.4 9.7 0.00 0.33 0.00 71 1016.2
20260504005311 21 105 6.4 12.9 0.00 0.33 0.00 71 1016.0
20260504004839 22 96 6.4 14.5 0.00 0.33 0.00 70 1015.8
20260504004811 22 86 6.4 14.5 0.00 0.33 0.00 70 1015.8
20260504004311 22 96 6.4 14.5 0.00 0.33 0.00 70 1015.8
20260504004226 22 115 6.4 14.5 0.00 0.33 0.00 70 1015.9
20260504003811 22 115 6.4 14.5 0.00 0.33 0.00 70 1015.9
20260504003311 22 98 6.4 16.1 0.00 0.33 0.00 70 1015.7
20260504003141 22 99 6.4 14.5 0.00 0.33 0.00 69 1015.7
20260504002811 22 90 6.4 14.5 0.00 0.33 0.00 69 1015.7
20260504002311 22 99 6.4 14.5 0.00 0.33 0.00 69 1015.7
20260504002139 22 97 6.4 14.5 0.00 0.33 0.00 69 1015.7
20260504001811 22 97 6.4 14.5 0.00 0.33 0.00 69 1015.7
20260504001637 22 96 6.4 14.5 0.00 0.33 0.00 68 1015.5
20260504001311 22 102 6.4 14.5 0.00 0.33 0.00 68 1015.6
20260504001138 22 101 6.4 14.5 0.00 0.33 0.00 67 1015.5
20260504000811 22 96 6.4 14.5 0.00 0.33 0.00 68 1015.5
20260504000809 22 51 6.4 14.5 0.00 0.33 0.00 68 1015.4
20260504000311 22 101 6.4 14.5 0.00 0.33 0.00 67 1015.5
20260503235811 22 51 6.4 14.5 0.00 0.33 0.00 68 1015.4
20260503235805 23 74 8.0 17.7 0.00 0.33 0.33 67 1015.4
20260503235316 23 102 8.0 16.1 0.00 0.33 0.33 67 1015.3
20260503235311 23 74 8.0 17.7 0.00 0.33 0.33 67 1015.4
20260503234811 23 102 8.0 16.1 0.00 0.33 0.33 67 1015.3
20260503234311 23 92 6.4 16.1 0.00 0.33 0.33 66 1015.3
20260503233839 23 97 9.7 19.3 0.00 0.33 0.33 66 1015.4
20260503233811 23 93 6.4 11.3 0.00 0.33 0.33 66 1015.3
20260503233437 23 58 9.7 17.7 0.00 0.33 0.33 65 1015.2
20260503233311 23 97 9.7 19.3 0.00 0.33 0.33 66 1015.4
20260503232818 23 98 11.3 19.3 0.00 0.33 0.33 65 1015.2
20260503232811 23 58 9.7 17.7 0.00 0.33 0.33 65 1015.2
20260503232311 23 98 11.3 19.3 0.00 0.33 0.33 65 1015.2
20260503231811 23 93 9.7 19.3 0.00 0.33 0.33 65 1015.1
20260503231636 23 98 9.7 20.9 0.00 0.33 0.33 64 1015.2
20260503231311 23 98 9.7 20.9 0.00 0.33 0.33 64 1015.2
20260503231137 24 99 9.7 17.7 0.00 0.33 0.33 63 1015.2
20260503231012 24 80 9.7 17.7 0.00 0.33 0.33 63 1015.2
20260503230811 24 99 9.7 17.7 0.00 0.33 0.33 63 1015.2
20260503230311 24 80 9.7 17.7 0.00 0.33 0.33 63 1015.2
20260503225847 24 98 11.3 19.3 0.00 0.33 0.33 62 1015.3
20260503225811 24 98 9.7 19.3 0.00 0.33 0.33 63 1015.2
20260503225311 24 98 11.3 19.3 0.00 0.33 0.33 62 1015.3
20260503224839 25 93 11.3 27.4 0.00 0.33 0.33 61 1015.2
20260503224811 25 90 12.9 20.9 0.00 0.33 0.33 62 1015.2
20260503224311 25 93 11.3 27.4 0.00 0.33 0.33 61 1015.2
20260503223811 25 102 8.0 16.1 0.00 0.33 0.33 60 1015.2
20260503223807 26 100 9.7 17.7 0.00 0.33 0.33 59 1015.2
20260503223311 26 100 9.7 17.7 0.00 0.33 0.33 59 1015.2
20260503222811 26 88 12.9 27.4 0.00 0.33 0.33 60 1015.1
20260503222311 26 96 14.5 22.5 0.00 0.33 0.33 59 1015.1
20260503221811 25 97 14.5 27.4 0.00 0.33 0.33 60 1015.0
20260503221640 26 95 11.3 22.5 0.00 0.38 0.33 59 1015.2
20260503221311 26 95 11.3 22.5 0.00 0.38 0.33 59 1015.2
20260503221137 26 93 9.7 17.7 0.00 0.38 0.33 59 1015.0
20260503220823 26 83 9.7 22.5 0.00 0.38 0.33 58 1014.9
20260503220811 26 93 9.7 17.7 0.00 0.38 0.33 59 1015.0
20260503220311 26 83 9.7 22.5 0.00 0.38 0.33 58 1014.9
20260503215811 26 76 9.7 17.7 0.00 0.38 0.33 59 1015.0
20260503215636 26 95 9.7 17.7 0.00 0.38 0.33 59 1014.9
20260503215311 26 95 9.7 17.7 0.00 0.38 0.33 59 1014.9
20260503215139 25 71 8.0 16.1 0.00 0.38 0.33 60 1015.0
20260503214811 25 71 8.0 16.1 0.00 0.38 0.33 60 1015.0
20260503214657 25 90 8.0 14.5 0.00 0.38 0.33 61 1014.9
20260503214311 25 90 8.0 14.5 0.00 0.38 0.33 61 1014.9
20260503214034 25 97 9.7 17.7 0.00 0.38 0.33 59 1014.8
20260503213840 25 100 9.7 17.7 0.00 0.38 0.33 59 1014.9
20260503213811 25 97 9.7 17.7 0.00 0.38 0.33 59 1014.8
20260503213311 25 100 9.7 17.7 0.00 0.38 0.33 59 1014.9
20260503212811 25 90 9.7 20.9 0.00 0.38 0.33 59 1015.1
20260503212602 26 93 11.3 16.1 0.00 0.38 0.33 57 1014.9
20260503212311 26 93 11.3 16.1 0.00 0.38 0.33 57 1014.9
20260503211942 26 96 11.3 20.9 0.00 0.38 0.33 57 1014.9
20260503211811 26 96 11.3 20.9 0.00 0.38 0.33 57 1014.9
20260503211445 26 96 9.7 20.9 0.00 0.38 0.33 57 1014.8
20260503211311 26 96 9.7 20.9 0.00 0.38 0.33 57 1014.8
20260503211005 26 9 6.4 16.1 0.00 0.38 0.33 57 1014.9
20260503210811 26 9 6.4 16.1 0.00 0.38 0.33 57 1014.9
20260503210444 26 104 4.8 12.9 0.00 0.38 0.33 55 1015.0
20260503210311 26 104 4.8 12.9 0.00 0.38 0.33 55 1015.0
20260503210017 26 67 6.4 12.9 0.00 0.38 0.33 55 1015.0
20260503205811 26 67 6.4 12.9 0.00 0.38 0.33 55 1015.0
20260503205603 27 98 6.4 22.5 0.00 0.38 0.33 53 1014.9
20260503205311 27 98 6.4 22.5 0.00 0.38 0.33 53 1014.9
20260503204938 27 87 4.8 8.0 0.00 0.38 0.33 53 1014.9
20260503204811 27 100 4.8 19.3 0.00 0.38 0.33 53 1014.9
20260503204504 26 9 6.4 14.5 0.00 0.38 0.33 54 1015.1
20260503204311 27 87 4.8 8.0 0.00 0.38 0.33 53 1014.9
20260503204014 27 9 8.0 16.1 0.00 0.38 0.33 53 1015.2
20260503203811 26 9 6.4 14.5 0.00 0.38 0.33 54 1015.1
20260503203311 27 9 8.0 16.1 0.00 0.38 0.33 53 1015.2
20260503202812 27 101 8.0 17.7 0.00 0.38 0.33 52 1015.2
20260503202437 27 93 6.4 24.1 0.00 0.38 0.33 53 1015.1
20260503202311 27 101 8.0 17.7 0.00 0.38 0.33 52 1015.2
20260503201811 27 93 6.4 24.1 0.00 0.38 0.33 53 1015.1
20260503201636 27 83 6.4 14.5 0.00 0.43 0.33 54 1015.0
20260503201311 27 83 6.4 14.5 0.00 0.43 0.33 54 1015.0
20260503201014 27 93 9.7 16.1 0.00 0.43 0.33 53 1015.3
20260503200811 26 93 9.7 16.1 0.00 0.43 0.33 55 1015.2
20260503200311 27 93 9.7 16.1 0.00 0.43 0.33 53 1015.3
20260503200218 27 90 8.0 20.9 0.00 0.43 0.33 53 1015.4
20260503195846 27 51 6.4 17.7 0.00 0.43 0.33 52 1015.4
20260503195811 27 90 8.0 20.9 0.00 0.43 0.33 53 1015.4
20260503195311 27 51 6.4 17.7 0.00 0.43 0.33 52 1015.4
20260503194812 27 102 6.4 17.7 0.00 0.43 0.33 51 1015.6
20260503194311 27 102 6.4 17.7 0.00 0.43 0.33 51 1015.6
20260503193816 27 9 6.4 12.9 0.00 0.43 0.33 55 1015.7
20260503193811 27 22 4.8 16.1 0.00 0.43 0.33 53 1015.6
20260503193311 27 9 6.4 12.9 0.00 0.43 0.33 55 1015.7
20260503193136 27 107 4.8 12.9 0.00 0.43 0.33 54 1015.8
20260503192811 27 107 4.8 12.9 0.00 0.43 0.33 54 1015.8
20260503192638 27 16 4.8 17.7 0.00 0.43 0.33 52 1016.0
20260503192311 27 16 4.8 17.7 0.00 0.43 0.33 52 1016.0
20260503192015 27 105 4.8 16.1 0.00 0.43 0.33 54 1016.0
20260503191811 27 105 4.8 16.1 0.00 0.43 0.33 54 1016.0
20260503191603 27 205 4.8 11.3 0.00 0.69 0.33 53 1016.1
20260503191311 27 205 4.8 11.3 0.00 0.69 0.33 53 1016.1
20260503190811 27 93 4.8 14.5 0.00 0.69 0.33 54 1016.2
20260503190733 27 100 6.4 14.5 0.00 0.69 0.33 55 1016.3
20260503190311 27 100 6.4 14.5 0.00 0.69 0.33 55 1016.3
20260503190156 27 93 6.4 17.7 0.00 0.69 0.33 55 1016.2
20260503185811 27 93 6.4 17.7 0.00 0.69 0.33 55 1016.2
20260503185311 27 58 4.8 14.5 0.00 0.69 0.33 55 1016.4
20260503184811 26 22 6.4 16.1 0.00 0.69 0.33 57 1016.5
20260503184311 26 97 8.0 19.3 0.00 0.69 0.33 57 1016.5
20260503184137 26 96 6.4 16.1 0.00 0.69 0.33 57 1016.5
20260503183811 26 96 6.4 16.1 0.00 0.69 0.33 57 1016.5
20260503183732 26 98 6.4 14.5 0.00 0.69 0.33 57 1016.6
20260503183311 26 98 6.4 14.5 0.00 0.69 0.33 57 1016.6
20260503182811 26 58 6.4 14.5 0.00 0.69 0.33 57 1016.7
20260503182636 26 36 4.8 16.1 0.00 0.69 0.33 58 1016.8
20260503182312 26 36 4.8 16.1 0.00 0.69 0.33 58 1016.8
20260503181914 27 107 4.8 14.5 0.00 0.69 0.33 57 1016.8
20260503181811 27 107 4.8 14.5 0.00 0.69 0.33 57 1016.8
20260503181351 26 26 6.4 12.9 0.00 0.69 0.33 58 1016.9
20260503181311 26 26 6.4 12.9 0.00 0.69 0.33 58 1016.9
20260503180811 26 93 6.4 14.5 0.00 0.69 0.33 62 1016.9
20260503180414 25 101 6.4 22.5 0.00 0.69 0.33 62 1017.0
20260503180311 25 101 6.4 22.5 0.00 0.69 0.33 62 1017.0
20260503175811 25 346 6.4 16.1 0.00 0.69 0.33 62 1017.2
20260503175438 25 88 6.4 16.1 0.00 0.69 0.33 62 1017.1
20260503175311 25 88 6.4 16.1 0.00 0.69 0.33 62 1017.1
20260503174811 25 97 8.0 16.1 0.00 0.69 0.33 61 1017.2
20260503174630 25 59 8.0 19.3 0.00 0.69 0.33 63 1017.1
20260503174311 25 59 8.0 19.3 0.00 0.69 0.33 63 1017.1
20260503173811 25 85 6.4 25.7 0.00 0.69 0.33 63 1017.1
20260503173311 25 63 4.8 14.5 0.00 0.69 0.33 63 1017.2
20260503172811 25 350 4.8 14.5 0.00 0.69 0.33 64 1017.1
20260503172334 24 67 6.4 17.7 0.00 0.69 0.33 64 1017.2
20260503172311 25 82 6.4 12.9 0.00 0.69 0.33 64 1017.2
20260503171811 24 67 6.4 17.7 0.00 0.69 0.33 64 1017.2
20260503171311 24 32 6.4 17.7 0.00 0.69 0.33 65 1017.2
20260503171127 24 97 6.4 16.1 0.00 0.69 0.33 66 1017.3
20260503170816 24 178 6.4 14.5 0.00 0.69 0.33 66 1017.5
20260503170812 24 97 6.4 16.1 0.00 0.69 0.33 66 1017.3
20260503170312 24 178 6.4 14.5 0.00 0.69 0.33 66 1017.5
20260503170138 24 11 6.4 17.7 0.00 0.69 0.33 66 1017.5
20260503160213 22 93 6.4 14.5 0.00 0.69 0.33 73 1017.7
20260503150812 20 43 4.8 16.1 0.00 0.69 0.33 79 1018.0
20260503150639 20 11 4.8 14.5 0.00 0.69 0.33 79 1018.0